TimeEDT,TemperatureF,Dew PointF,Humidity,Sea Level PressureIn,VisibilityMPH,Wind Direction,Wind SpeedMPH,Gust SpeedMPH,PrecipitationIn,Events,Conditions,WindDirDegrees,DateUTC
12:53 AM,73.0,70.0,90,29.77,4.0,Calm,Calm,-,0.00,Rain,Light Rain,0,2013-06-27 04:53:00
1:25 AM,73.4,71.6,94,29.79,4.0,South,4.6,-,0.01,Rain,Light Rain,180,2013-06-27 05:25:00
1:51 AM,73.4,71.6,94,29.78,3.0,SW,6.9,-,0.01,Rain,Rain,230,2013-06-27 05:51:00
1:53 AM,73.0,71.1,93,29.77,3.0,WSW,5.8,-,0.01,Rain,Rain,240,2013-06-27 05:53:00
2:15 AM,73.4,69.8,88,29.77,3.0,SSW,4.6,-,0.02,Rain,Rain,200,2013-06-27 06:15:00
2:39 AM,71.6,69.8,94,29.76,4.0,SSE,3.5,-,0.02,Rain,Light Rain,160,2013-06-27 06:39:00
2:46 AM,71.6,69.8,94,29.76,4.0,ESE,4.6,-,0.02,Rain,Light Rain,120,2013-06-27 06:46:00
2:53 AM,72.0,70.0,93,29.74,4.0,SE,5.8,-,0.02,Rain,Light Rain,140,2013-06-27 06:53:00
3:00 AM,71.6,69.8,94,29.75,8.0,SSE,5.8,-,0.00,Rain,Light Rain,160,2013-06-27 07:00:00
3:41 AM,71.6,68.0,88,29.75,2.5,Calm,Calm,-,0.10,Rain,Rain,0,2013-06-27 07:41:00
3:50 AM,71.6,68.0,88,29.75,4.0,Calm,Calm,-,0.11,Rain,Light Rain,0,2013-06-27 07:50:00
3:53 AM,71.1,68.0,90,29.74,4.0,Calm,Calm,-,0.11,Rain,Light Rain,0,2013-06-27 07:53:00
4:48 AM,71.6,68.0,88,29.76,5.0,North,3.5,-,0.04,Rain,Light Rain,10,2013-06-27 08:48:00
4:53 AM,71.1,68.0,90,29.75,5.0,Calm,Calm,-,0.04,Rain,Light Rain,0,2013-06-27 08:53:00
5:39 AM,71.6,69.8,94,29.75,5.0,Calm,Calm,-,0.01,Rain,Light Rain,0,2013-06-27 09:39:00
5:53 AM,71.1,69.1,93,29.74,4.0,Calm,Calm,-,0.01,Rain,Light Rain,0,2013-06-27 09:53:00
6:09 AM,71.6,69.8,94,29.75,4.0,Calm,Calm,-,0.00,Rain,Light Rain,0,2013-06-27 10:09:00
6:30 AM,71.6,69.8,94,29.75,2.5,Calm,Calm,-,0.00,Rain,Light Rain,0,2013-06-27 10:30:00
6:53 AM,72.0,69.1,91,29.74,2.5,Calm,Calm,-,0.00,Rain,Light Rain,0,2013-06-27 10:53:00
7:18 AM,71.6,69.8,94,29.76,2.5,Calm,Calm,-,0.00,,Overcast,0,2013-06-27 11:18:00
7:49 AM,71.6,69.8,94,29.76,3.0,Calm,Calm,-,0.00,,Overcast,0,2013-06-27 11:49:00
7:53 AM,72.0,69.1,91,29.74,3.0,Calm,Calm,-,0.00,,Overcast,0,2013-06-27 11:53:00
7:57 AM,73.4,69.8,88,29.76,4.0,Calm,Calm,-,N/A,,Overcast,0,2013-06-27 11:57:00
8:53 AM,73.9,69.1,85,29.73,4.0,West,5.8,-,N/A,,Haze,280,2013-06-27 12:53:00
9:13 AM,73.4,69.8,88,29.75,9.0,Calm,Calm,-,N/A,,Mostly Cloudy,0,2013-06-27 13:13:00
9:53 AM,75.9,69.1,79,29.73,9.0,North,3.5,-,N/A,,Mostly Cloudy,360,2013-06-27 13:53:00
10:53 AM,79.0,70.0,74,29.73,10.0,Variable,4.6,-,N/A,,Mostly Cloudy,0,2013-06-27 14:53:00
11:10 AM,78.8,69.8,74,29.74,10.0,ENE,4.6,-,N/A,,Mostly Cloudy,60,2013-06-27 15:10:00
11:53 AM,81.0,69.1,67,29.73,10.0,NNE,4.6,-,N/A,,Mostly Cloudy,30,2013-06-27 15:53:00
12:28 PM,78.8,68.0,69,29.75,10.0,East,6.9,-,N/A,,Mostly Cloudy,80,2013-06-27 16:28:00
12:53 PM,80.1,66.9,64,29.73,10.0,East,6.9,-,N/A,,Mostly Cloudy,90,2013-06-27 16:53:00
1:53 PM,82.0,66.9,60,29.72,10.0,SE,6.9,-,N/A,,Mostly Cloudy,140,2013-06-27 17:53:00
2:53 PM,82.0,68.0,62,29.70,10.0,SSE,11.5,18.4,N/A,,Mostly Cloudy,150,2013-06-27 18:53:00
3:53 PM,78.1,66.0,66,29.70,10.0,SSE,12.7,-,N/A,,Mostly Cloudy,150,2013-06-27 19:53:00
4:04 PM,77.0,64.4,65,29.71,10.0,SSE,9.2,-,N/A,Thunderstorm,Thunderstorm,150,2013-06-27 20:04:00
4:53 PM,73.9,66.9,79,29.69,9.0,South,8.1,-,0.01,Rain-Thunderstorm,Light Thunderstorms and Rain,170,2013-06-27 20:53:00
5:06 PM,73.4,68.0,83,29.70,10.0,SSE,10.4,-,0.00,Rain,Light Rain,160,2013-06-27 21:06:00
5:36 PM,73.4,66.2,78,29.72,10.0,Calm,Calm,-,0.00,Rain-Thunderstorm,Light Thunderstorms and Rain,0,2013-06-27 21:36:00
5:53 PM,73.0,68.0,84,29.72,7.0,NNW,10.4,-,0.01,Rain-Thunderstorm,Light Thunderstorms and Rain,340,2013-06-27 21:53:00
6:02 PM,71.6,69.8,94,29.75,2.0,NW,10.4,18.4,0.05,Rain-Thunderstorm,Heavy Thunderstorms and Rain,310,2013-06-27 22:02:00
6:10 PM,71.6,68.0,88,29.75,1.0,WNW,13.8,-,0.14,Rain-Thunderstorm,Heavy Thunderstorms and Rain,290,2013-06-27 22:10:00
6:19 PM,68.0,66.2,94,29.76,1.5,WNW,12.7,23.0,0.62,Rain-Thunderstorm,Heavy Thunderstorms and Rain,300,2013-06-27 22:19:00
6:25 PM,69.8,66.2,88,29.76,2.5,NNW,10.4,-,0.93,Rain-Thunderstorm,Heavy Thunderstorms and Rain,330,2013-06-27 22:25:00
6:31 PM,69.8,66.2,88,29.76,3.0,North,9.2,-,1.07,Rain-Thunderstorm,Thunderstorms and Rain,350,2013-06-27 22:31:00
6:53 PM,68.0,66.0,93,29.73,3.0,Calm,Calm,-,1.23,Rain-Thunderstorm,Heavy Thunderstorms and Rain,0,2013-06-27 22:53:00
7:39 PM,68.0,66.2,94,29.73,10.0,SE,3.5,-,0.03,Rain,Light Rain,130,2013-06-27 23:39:00
7:53 PM,69.1,66.0,90,29.71,10.0,ESE,4.6,-,0.04,Rain,Light Rain,120,2013-06-27 23:53:00
8:53 PM,69.1,66.0,90,29.68,10.0,South,6.9,-,0.01,,Mostly Cloudy,190,2013-06-28 00:53:00
9:53 PM,68.0,64.9,90,29.68,10.0,West,5.8,-,N/A,,Mostly Cloudy,260,2013-06-28 01:53:00
9:56 PM,68.0,64.4,88,29.68,10.0,West,4.6,-,N/A,,Mostly Cloudy,260,2013-06-28 01:56:00
10:53 PM,68.0,64.9,90,29.66,10.0,West,8.1,-,N/A,,Mostly Cloudy,270,2013-06-28 02:53:00
11:53 PM,66.9,64.0,90,29.65,10.0,West,6.9,-,N/A,,Mostly Cloudy,280,2013-06-28 03:53:00